Weather in Nerungri

Russia / Sakha (Yakutia) Republic     56°39′35″N   124°43′13″E
temp.,
°C
wind,
m/s
gust,
m/s
humid.,
%
clouds,
%
prec.,
mm/h
press.,
hPa
HPBL,
m
17 april, sat
sat1700:00−7s4127864 0.0 1010271
03:00−3s41062100 0.0 1007221
06:00−7se487760 0.0 1007130
09:00−2sse613745 0.0 1004484
12:00+2sse6128298 0.0 1002909
15:00+3s6138393 0.0 10021011
18:00+3s7147585 0.0 10021024
21:000s41177100 0.0 1003279
18 april, sun
sun1800:00−6w1194100 0.0 100712
03:00−4wnw1198100 0.2 100811
06:00−4nw1397100 0.4 1009105
09:00−4n51192100 1.8 1012819
12:00−4nne5888100 0.8 1013987
15:00−5n6991100 2.6 1014999
18:00−7n51093100 2.0 1016946
21:00−8nnw51194100 3.8 10181108
19 april, mon
mon1900:00−10n51293100 2.3 10191131
03:00−11n61391100 3.7 10201196
06:00−12nnw61284100 0.2 10211108
09:00−11nnw71184100 0.4 10211193
12:00−9nnw61074100 0.2 10201687
15:00−8nnw61074100 0.4 10201925
18:00−8nnw51077100 0.3 10201695
21:00−16nw229321 0.4 102418
20 april, tue
tue2000:00−20wnw229829 0.0 102612
03:00−22w1110034 0.0 10269
06:00−24s1110066 0.0 10259
09:00−11se128432 0.0 1018288
12:00−7sse2477100 0.1 1014585
15:00−4sse247198 0.1 10111013
18:00−3nw3786100 0.3 1012834
21:00−12w119455 0.3 101810
21 april, wed
wed2100:00−16sw119776 0.0 10219
03:00−18ssw119896 0.0 102310
06:00−19ssw11986 0.0 102411
09:00−5ese018464 0.0 1020278
12:00−1ne1276100 0.1 1018937
15:00−1ne127598 0.4 1019849
18:00−2ene237998 0.6 1020640
21:00−8nw119575 0.8 102410